Regional Weather Roundup
Issued by NWS Sterling, VA

Home | Current Version | Previous Version | Graphics & Text | Print | Product List | Glossary On
Versions: 1 2 3 4 5 6 7 8 9 10 11 12 13 14 15 16 17 18 19 20 21 22 23 24 25 26 27 28 29 30 31 32 33 34 35 36 37 38 39 40 41 42 43 44 45 46 47 48 49 50
000
ASUS41 KLWX 300010
RWRLWX

REGIONAL WEATHER ROUNDUP
NATIONAL WEATHER SERVICE BALTIMORE MD/WASHINGTON DC
700 PM EST THU JAN 29 2015

Note: "FAIR" indicates few or no clouds below 12,000 feet
with no significant weather and/or obstructions to visibility.
 TC=TEMPERATURE CELSIUS

 * =Non NWS site. Station does not report precipitation (e.g. rain,
    snow, etc.), thunder, or fog.

DCZ001-MDZ009-015-VAZ040>042-051-053>054-300100-
WASHINGTON METRO

CITY           SKY/WX    TMP DP  RH WIND       PRES   REMARKS
WASHINGTON NAT CLOUDY    36  25  64 SE6       30.07F
DULLES         CLOUDY    33  23  66 S7        30.03F
FT BELVOIR     CLOUDY    32  29  88 VRB3      30.06F
QUANTICO       CLOUDY    37  24  59 S10       30.07F
COLLEGE PARK*  CLOUDY    32  28  86 CALM      30.07F
LEESBURG*      CLOUDY    32  30  93 S6        30.03F
MANASSAS*      CLOUDY    34  28  80 S3        30.04F
GAITHERSBURG*  CLOUDY    30  23  74 SE9       30.06F WCI  22

$$

MDZ006>007-011-014-300100-
BALTIMORE METRO

CITY           SKY/WX    TMP DP  RH WIND       PRES   REMARKS
BWI AIRPORT    CLOUDY    31  27  85 SE3       30.06F
MD SCIENCE CTR   N/A     32  26  78 MISG      30.07F
ANNAPOLIS      CLOUDY    33  26  75 SE13      30.07F WCI  24
FORT MEADE*    CLOUDY    32  28  86 SE3       30.09F

$$

MDZ012-015-019>023-300100-
MARYLAND EASTERN SHORE

CITY           SKY/WX    TMP DP  RH WIND       PRES   REMARKS
OCEAN CITY     CLOUDY    36  26  67 SW7       30.12F
SALISBURY      CLOUDY    36  22  56 S9        30.11F WCI  29
BAY BRIDGE AP*   N/A     32  23  69 SE12      30.09F WCI  23
CAMBRIDGE*     CLOUDY    36  27  69 S9        30.11R WCI  29
EASTON*        LGT SNOW  36  19  51 S9        30.13F WCI  29

$$

MDZ017>025-300100-
SOUTHERN MARYLAND

CITY           SKY/WX    TMP DP  RH WIND       PRES   REMARKS
PATUXENT RIVER CLOUDY    35  26  69 SE10      30.09F WCI  27
ST INIGOES     CLOUDY    36  26  67 SE6       30.09F
LEONARDTOWN*   CLOUDY    34  27  75 SE6       30.10F

$$

MDZ003>005-300100-
NORTH CENTRAL MARYLAND

CITY           SKY/WX    TMP DP  RH WIND       PRES   REMARKS
FREDERICK*     NOT AVBL
HAGERSTOWN APT CLOUDY    32  20  61 S10       29.97F WCI  24
WESTMINSTER*   CLOUDY    28  25  86 SE10G18   30.00F WCI  19

$$

MDZ501>502-300100-
WESTERN MARYLAND

CITY           SKY/WX    TMP DP  RH WIND       PRES   REMARKS
OAKLAND*       CLOUDY    34 N/A N/A S12G17    29.80F FOG     WCI  25
CUMBERLAND*    CLOUDY    30  28  93 CALM      29.98F

$$

VAZ025>031-300100-
SHENANDOAH VALLEY

CITY           SKY/WX    TMP DP  RH WIND       PRES   REMARKS
WINCHESTER*    CLOUDY    36  23  60 S8        29.96F
FRONT ROYAL*   CLOUDY    32  30  93 SE3       29.95F
LURAY*         CLOUDY    37  28  70 SW6       29.97F
NEW MARKET*    CLOUDY    37  27  66 SW6       29.95F
STAUNTON*      CLOUDY    37  25  60 S5        29.99F
WAYNESBORO*    CLOUDY    37  24  59 S6        29.98S

$$

WVZ021-048>050-054>055-300100-
EASTERN WEST VIRGINIA PANHANDLE

CITY           SKY/WX    TMP DP  RH WIND       PRES   REMARKS
MARTINSBURG    CLOUDY    35  22  58 SE7       29.97F
PETERSBURG*    CLOUDY    29  22  75 CALM      29.93F

$$

VAZ036>039-050-300100-
CENTRAL FOOTHILLS

CITY           SKY/WX    TMP DP  RH WIND       PRES   REMARKS
CHARLOTTESVILL CLOUDY    39  23  52 S12       30.02F
CULPEPER*      CLOUDY    37  27  65 CALM      30.03F
ORANGE*        CLOUDY    37  25  60 CALM      30.05S
GORDONSVILLE*  CLOUDY    37  23  56 S5        30.02F
WARRENTON*     CLOUDY    37  27  69 SE3       30.02F

$$

VAZ055>057-300100-
NORTH AND CENTRAL PIEDMONT

CITY           SKY/WX    TMP DP  RH WIND       PRES   REMARKS
FREDERICKSBRG* CLOUDY    38  21  49 S6        30.06S
STAFFORD*      CLOUDY    37  15  40 CALM      30.09F

$$

NCZ024-NYZ072-PAZ021-071-VAZ022-071-300100-
OTHER REGIONAL OBSERVATIONS

CITY           SKY/WX    TMP DP  RH WIND       PRES   REMARKS
NEW YORK CITY  CLOUDY    34  24  67 MISG      30.12F
PHILADELPHIA   CLOUDY    34  18  52 S8        30.11S WCI  27
PITTSBURGH     LGT RAIN  38  37  97 SW9       29.80R FOG
ROANOKE        MOCLDY    41  26  55 S3        30.03R
RICHMOND       MOCLDY    40  18  41 S9        30.07F
RALEIGH        MOCLDY    42  25  50 S9        30.10F

$$

ANZ530>537-300100-
MARINE OBSERVATIONS

STATION/POSITION TIME  TEMP    WIND        PRES
                       AIR SEA DIR/SP/G
                 (UTC) (F)     (DEG/KT/KT) (MB)
THOMAS PT LIGHT  0000   34 35  160/ 18/ 19 1019.1F
BALT KEY BRIDGE  0000   32     120/  9/ 12 1018.5F
COVE POINT       0000   35     180/ 19/ 22 1018.6F
LEWISETTA        0000   36 36  160/  8/ 10 1018.6F
SOLOMONS ISLAND  0000      37                N/A
PINEY POINT      0000          150/ 13/ 14   N/A

$$



USA.gov is the U.S. government's official web portal to all federal, state and local government web resources and services.